This is the latest recevied weather packets stored in our database for station/object KB4KY. If no packets are shown the sender has not sent any weather packets the latest 10 day(s).
| Time | Temp. | Humidity | Pressure | Rain* | Wind** | Luminosity | Snow |
|---|---|---|---|---|---|---|---|
| 1778132672 | 10.56° C | 88% | 1014.9 hPa | 0 mm | - | - | - |
| 1778132371 | 10.56° C | 88% | 1014.8 hPa | 0 mm | - | - | - |
| 1778132071 | 10.56° C | 86% | 1014.7 hPa | 0 mm | - | - | - |
| 1778131775 | 11.11° C | 85% | 1014.6 hPa | 0 mm | - | - | - |
| 1778131509 | 11.11° C | 84% | 1014.5 hPa | 0 mm | - | - | - |
| 1778131470 | 11.11° C | 84% | 1014.5 hPa | 0 mm | - | - | - |
| 1778131170 | 11.67° C | 82% | 1014.5 hPa | 0 mm | - | - | - |
| 1778130969 | 11.67° C | 78% | 1014.3 hPa | 0 mm | - | - | - |
| 1778130870 | 11.67° C | 77% | 1014.5 hPa | 0 mm | - | - | - |
| 1778130569 | 11.67° C | 78% | 1014.3 hPa | 0 mm | - | - | - |
| 1778130332 | 11.67° C | 81% | 1014.2 hPa | 0 mm | - | - | - |
| 1778130269 | 11.67° C | 80% | 1014.3 hPa | 0 mm | - | - | - |
| 1778129970 | 11.67° C | 81% | 1014.2 hPa | 0 mm | - | - | - |
| 1778129752 | 11.11° C | 80% | 1014.4 hPa | 0 mm | - | - | - |
| 1778129670 | 11.67° C | 78% | 1014.3 hPa | 0 mm | - | - | - |
| 1778129368 | 11.11° C | 80% | 1014.4 hPa | 0 mm | - | - | - |
| 1778129068 | 11.11° C | 81% | 1014.3 hPa | 0 mm | - | - | - |
| 1778129061 | 11.11° C | 84% | 1014.2 hPa | 0 mm | - | - | - |
| 1778128770 | 11.11° C | 83% | 1014.2 hPa | 0 mm | - | - | - |
| 1778128474 | 11.11° C | 85% | 1014.3 hPa | 0 mm | - | - | - |
| 1778128170 | 11.11° C | 84% | 1014.2 hPa | 0 mm | - | - | - |
| 1778127870 | 11.11° C | 82% | 1014.3 hPa | 0 mm | - | - | - |
| 1778127640 | 11.67° C | 81% | 1014.7 hPa | 0 mm | - | - | - |
| 1778127567 | 11.11° C | 83% | 1014.4 hPa | 0 mm | - | - | - |
| 1778127266 | 11.11° C | 82% | 1014.6 hPa | 0 mm | - | - | - |
* Rain latest hour (hover to see other rain measurements)
** Current wind speed in m/s (hover to see current wind gust speed)